TimeCDT,TemperatureF,Dew PointF,Humidity,Sea Level PressureIn,VisibilityMPH,Wind Direction,Wind SpeedMPH,Gust SpeedMPH,PrecipitationIn,Events,Conditions,WindDirDegrees,DateUTC
12:53 AM,45.0,43.0,93,29.97,10.0,West,8.1,-,N/A,,Clear,270,2013-09-21 05:53:00
1:53 AM,44.1,42.1,93,29.98,10.0,West,8.1,-,N/A,,Clear,280,2013-09-21 06:53:00
2:53 AM,43.0,42.1,97,29.97,10.0,West,9.2,-,N/A,,Clear,280,2013-09-21 07:53:00
3:53 AM,44.1,42.1,93,29.98,10.0,West,9.2,-,N/A,,Clear,270,2013-09-21 08:53:00
4:53 AM,42.1,41.0,96,29.99,10.0,West,6.9,-,N/A,,Clear,280,2013-09-21 09:53:00
5:53 AM,41.0,39.9,96,30.00,10.0,WNW,3.5,-,N/A,,Clear,290,2013-09-21 10:53:00
6:53 AM,39.9,39.9,100,30.00,10.0,NW,5.8,-,N/A,,Clear,320,2013-09-21 11:53:00
7:53 AM,45.0,43.0,93,30.02,10.0,NW,5.8,-,N/A,,Clear,320,2013-09-21 12:53:00
8:53 AM,51.1,46.9,86,30.02,10.0,NNW,8.1,-,N/A,,Clear,340,2013-09-21 13:53:00
9:53 AM,55.0,48.0,77,30.02,10.0,NNW,9.2,-,N/A,,Clear,340,2013-09-21 14:53:00
10:53 AM,57.0,46.9,69,30.03,10.0,WNW,5.8,-,N/A,,Scattered Clouds,290,2013-09-21 15:53:00
11:53 AM,59.0,46.9,64,30.02,10.0,NW,10.4,-,N/A,,Scattered Clouds,310,2013-09-21 16:53:00
12:53 PM,64.0,46.0,52,30.00,10.0,NNW,11.5,17.3,N/A,,Clear,330,2013-09-21 17:53:00
1:53 PM,64.9,46.0,50,29.98,10.0,NNW,6.9,-,N/A,,Partly Cloudy,330,2013-09-21 18:53:00
2:53 PM,66.9,46.0,47,29.96,10.0,NNW,8.1,-,N/A,,Clear,330,2013-09-21 19:53:00
3:53 PM,66.9,45.0,45,29.95,10.0,NW,8.1,-,N/A,,Clear,320,2013-09-21 20:53:00
4:53 PM,66.9,45.0,45,29.93,10.0,North,6.9,-,N/A,,Clear,350,2013-09-21 21:53:00
5:53 PM,66.9,45.0,45,29.93,10.0,North,3.5,-,N/A,,Clear,350,2013-09-21 22:53:00
6:53 PM,63.0,48.0,58,29.92,10.0,NNE,3.5,-,N/A,,Clear,30,2013-09-21 23:53:00
7:53 PM,53.1,48.0,83,29.93,9.0,ENE,4.6,-,N/A,,Clear,70,2013-09-22 00:53:00
8:53 PM,52.0,46.9,83,29.94,10.0,Calm,Calm,-,N/A,,Clear,0,2013-09-22 01:53:00
9:53 PM,46.9,45.0,93,29.96,10.0,Calm,Calm,-,N/A,,Clear,0,2013-09-22 02:53:00
10:53 PM,46.9,44.1,90,29.96,10.0,Calm,Calm,-,N/A,,Clear,0,2013-09-22 03:53:00
11:53 PM,43.0,42.1,97,29.96,10.0,Calm,Calm,-,N/A,,Clear,0,2013-09-22 04:53:00